When you browse on this site, cookies collect data to enhance your experience and personalize the content and advertising you see.
Visit our Privacy Policy to learn more. By continuing to use the site, you agree to this use of cookies and data.
  • In Hungary
  • List of Countries
  • For 7 days
  • Water Temperature
  • Satellite Maps
  • Weather Map
  • News
  • Weather Widgets
  • user-avatar
    Login

    Hourly Weather Kocani

    Today, 22 February, Friday

    Time Temperature Precipitation Wind Pressure Humidity
    00:00 +2°C° 0 mm 1 mps 694 mmHg 71%
    01:00 +2°C° 0 mm 1 mps 693 mmHg 71%
    02:00 +2°C° 0 mm 1 mps 693 mmHg 72%
    03:00 +1°C° 0 mm 1 mps 692 mmHg 72%
    04:00 +1°C° 0 mm 1 mps 692 mmHg 73%
    05:00 +1°C° 0 mm 1 mps 691 mmHg 73%
    06:00 +1°C° 0 mm 1 mps 691 mmHg 74%
    07:00 +2°C° 0 mm 1 mps 691 mmHg 71%
    08:00 +3°C° 0.1 mm 1 mps 691 mmHg 68%
    09:00 +4°C° 0.1 mm 1 mps 691 mmHg 66%
    10:00 +5°C° 0.1 mm 2 mps 690 mmHg 64%
    11:00 +5°C° 0.3 mm 2 mps 690 mmHg 64%
    12:00 +5°C° 0.3 mm 2 mps 689 mmHg 65%
    13:00 +6°C° 0.3 mm 2 mps 689 mmHg 66%
    14:00 +5°C° 0.2 mm 2 mps 689 mmHg 67%
    15:00 +5°C° 0.2 mm 2 mps 689 mmHg 69%
    16:00 +5°C° 0.2 mm 2 mps 688 mmHg 71%
    17:00 +4°C° 0.2 mm 2 mps 688 mmHg 75%
    18:00 +4°C° 0.2 mm 2 mps 688 mmHg 80%
    19:00 +4°C° 0.2 mm 1 mps 688 mmHg 84%
    20:00 +3°C° 0.1 mm 1 mps 688 mmHg 87%
    21:00 +3°C° 0.1 mm 1 mps 688 mmHg 89%
    22:00 +3°C° 0.1 mm 1 mps 688 mmHg 91%
    23:00 +1°C° 0.1 mm 2 mps 688 mmHg 86%

    Tomorrow, 23 February, Saturday

    Time Temperature Precipitation Wind Pressure Humidity
    00:00 0°C° 0.1 mm 3 mps 688 mmHg 82%
    01:00 -2°C° 0.1 mm 4 mps 689 mmHg 77%
    02:00 -4°C° 0.2 mm 5 mps 689 mmHg 76%
    03:00 -6°C° 0.2 mm 5 mps 690 mmHg 75%
    04:00 -7°C° 0.2 mm 5 mps 690 mmHg 73%
    05:00 -7°C° 0.3 mm 5 mps 691 mmHg 74%
    06:00 -8°C° 0.3 mm 5 mps 691 mmHg 75%
    07:00 -8°C° 0.3 mm 5 mps 692 mmHg 75%
    08:00 -8°C° 0.2 mm 5 mps 693 mmHg 72%
    09:00 -8°C° 0.2 mm 5 mps 693 mmHg 70%
    10:00 -7°C° 0.2 mm 5 mps 694 mmHg 67%
    11:00 -7°C° 0.1 mm 5 mps 694 mmHg 65%
    12:00 -6°C° 0.1 mm 5 mps 695 mmHg 64%
    13:00 -6°C° 0.1 mm 5 mps 695 mmHg 62%
    14:00 -5°C° 0 mm 4 mps 696 mmHg 63%
    15:00 -7°C° 0 mm 4 mps 696 mmHg 63%
    16:00 -7°C° 0 mm 4 mps 696 mmHg 64%
    17:00 -8°C° 0 mm 4 mps 697 mmHg 66%
    18:00 -9°C° 0 mm 4 mps 697 mmHg 69%
    19:00 -10°C° 0 mm 4 mps 698 mmHg 71%
    20:00 -10°C° 0 mm 4 mps 698 mmHg 72%
    21:00 -9°C° 0 mm 3 mps 698 mmHg 73%
    22:00 -10°C° 0 mm 3 mps 698 mmHg 74%
    23:00 -10°C° 0 mm 3 mps 698 mmHg 74%

    Day after tomorrow, 24 February, Sunday

    Time Temperature Precipitation Wind Pressure Humidity
    00:00 -10°C° 0 mm 3 mps 699 mmHg 73%
    01:00 -10°C° 0 mm 3 mps 699 mmHg 72%
    02:00 -12°C° 0 mm 3 mps 699 mmHg 72%
    03:00 -12°C° 0 mm 3 mps 699 mmHg 73%
    04:00 -12°C° 0 mm 3 mps 699 mmHg 73%
    05:00 -12°C° 0 mm 3 mps 699 mmHg 72%
    06:00 -12°C° 0 mm 3 mps 699 mmHg 72%
    07:00 -12°C° 0 mm 3 mps 699 mmHg 72%
    08:00 -9°C° 0 mm 3 mps 700 mmHg 66%
    09:00 -7°C° 0 mm 3 mps 700 mmHg 59%
    10:00 -5°C° 0 mm 3 mps 700 mmHg 53%
    11:00 -4°C° 0 mm 3 mps 700 mmHg 52%
    12:00 -2°C° 0 mm 3 mps 700 mmHg 50%
    13:00 -1°C° 0 mm 2 mps 700 mmHg 48%
    14:00 -1°C° 0 mm 2 mps 700 mmHg 50%
    15:00 -1°C° 0 mm 2 mps 700 mmHg 52%
    16:00 -1°C° 0 mm 2 mps 699 mmHg 54%
    17:00 -3°C° 0 mm 2 mps 700 mmHg 61%
    18:00 -5°C° 0 mm 2 mps 700 mmHg 69%
    19:00 -6°C° 0 mm 2 mps 700 mmHg 76%
    20:00 -6°C° 0 mm 2 mps 700 mmHg 78%
    21:00 -7°C° 0 mm 2 mps 700 mmHg 79%
    22:00 -7°C° 0 mm 2 mps 701 mmHg 80%
    23:00 -7°C° 0 mm 2 mps 700 mmHg 79%

    25 February, Monday

    Time Temperature Precipitation Wind Pressure Humidity
    00:00 -8°C° 0 mm 2 mps 700 mmHg 78%
    01:00 -8°C° 0 mm 2 mps 700 mmHg 77%
    02:00 -8°C° 0 mm 2 mps 700 mmHg 75%
    03:00 -8°C° 0 mm 2 mps 700 mmHg 74%
    04:00 -9°C° 0 mm 2 mps 700 mmHg 73%
    05:00 -8°C° 0 mm 2 mps 700 mmHg 69%
    06:00 -8°C° 0 mm 2 mps 700 mmHg 66%
    07:00 -8°C° 0 mm 2 mps 700 mmHg 62%
    08:00 -6°C° 0 mm 2 mps 700 mmHg 54%
    09:00 -4°C° 0 mm 2 mps 700 mmHg 46%
    10:00 -2°C° 0 mm 2 mps 700 mmHg 38%
    11:00 -1°C° 0 mm 3 mps 700 mmHg 38%
    12:00 +1°C° 0 mm 3 mps 699 mmHg 38%
    13:00 +2°C° 0 mm 3 mps 699 mmHg 38%
    14:00 +2°C° 0 mm 3 mps 698 mmHg 41%
    15:00 +2°C° 0 mm 3 mps 698 mmHg 45%
    16:00 +2°C° 0 mm 3 mps 697 mmHg 49%
    17:00 0°C° 0 mm 3 mps 697 mmHg 57%
    18:00 -2°C° 0 mm 2 mps 697 mmHg 65%
    19:00 -4°C° 0 mm 2 mps 697 mmHg 74%
    20:00 -4°C° 0 mm 2 mps 697 mmHg 75%
    21:00 -5°C° 0 mm 2 mps 697 mmHg 77%
    22:00 -5°C° 0 mm 2 mps 697 mmHg 79%
    23:00 -5°C° 0 mm 2 mps 697 mmHg 78%

    26 February, Tuesday

    Time Temperature Precipitation Wind Pressure Humidity
    00:00 -5°C° 0 mm 2 mps 696 mmHg 77%
    01:00 -5°C° 0 mm 2 mps 696 mmHg 76%
    02:00 -5°C° 0 mm 2 mps 696 mmHg 75%
    03:00 -5°C° 0 mm 2 mps 696 mmHg 73%
    04:00 -5°C° 0 mm 2 mps 695 mmHg 71%
    05:00 -5°C° 0 mm 2 mps 695 mmHg 69%
    06:00 -4°C° 0 mm 2 mps 695 mmHg 67%
    07:00 -4°C° 0 mm 2 mps 695 mmHg 64%
    08:00 -1°C° 0 mm 2 mps 695 mmHg 59%
    09:00 +1°C° 0 mm 3 mps 695 mmHg 53%
    10:00 +3°C° 0 mm 3 mps 695 mmHg 48%
    11:00 +4°C° 0 mm 3 mps 695 mmHg 47%
    12:00 +5°C° 0 mm 3 mps 695 mmHg 46%
    13:00 +8°C° 0 mm 3 mps 694 mmHg 44%
    14:00 +7°C° 0 mm 3 mps 694 mmHg 47%
    15:00 +7°C° 0 mm 3 mps 693 mmHg 50%
    16:00 +5°C° 0 mm 3 mps 693 mmHg 53%
    17:00 +3°C° 0 mm 3 mps 692 mmHg 60%
    18:00 +2°C° 0 mm 2 mps 692 mmHg 67%
    19:00 -1°C° 0 mm 2 mps 692 mmHg 74%
    20:00 -1°C° 0 mm 2 mps 691 mmHg 76%
    21:00 -2°C° 0 mm 2 mps 691 mmHg 78%
    22:00 -2°C° 0 mm 2 mps 691 mmHg 80%
    23:00 -2°C° 0 mm 2 mps 690 mmHg 79%

    27 February, Wednesday

    Time Temperature Precipitation Wind Pressure Humidity
    00:00 -1°C° 0 mm 2 mps 690 mmHg 78%
    01:00 -1°C° 0 mm 2 mps 689 mmHg 77%
    02:00 -1°C° 0 mm 2 mps 689 mmHg 80%
    03:00 -2°C° 0 mm 2 mps 689 mmHg 82%
    04:00 -2°C° 0 mm 2 mps 688 mmHg 85%
    05:00 -2°C° 0 mm 3 mps 688 mmHg 84%
    06:00 -2°C° 0 mm 3 mps 689 mmHg 82%
    07:00 -2°C° 0 mm 3 mps 689 mmHg 81%
    08:00 -1°C° 0 mm 4 mps 689 mmHg 69%
    09:00 +1°C° 0 mm 5 mps 689 mmHg 57%
    10:00 +2°C° 0 mm 6 mps 690 mmHg 46%
    11:00 +3°C° 0 mm 6 mps 690 mmHg 46%
    12:00 +3°C° 0 mm 5 mps 689 mmHg 47%
    13:00 +3°C° 0 mm 5 mps 689 mmHg 47%
    14:00 +3°C° 0 mm 5 mps 689 mmHg 50%
    15:00 +2°C° 0 mm 5 mps 689 mmHg 53%
    16:00 +2°C° 0 mm 5 mps 689 mmHg 56%
    17:00 +1°C° 0 mm 4 mps 690 mmHg 62%
    18:00 +1°C° 0 mm 3 mps 690 mmHg 69%
    19:00 -1°C° 0 mm 2 mps 691 mmHg 75%
    20:00 -1°C° 0 mm 2 mps 691 mmHg 77%
    21:00 -1°C° 0 mm 2 mps 691 mmHg 80%
    22:00 -2°C° 0 mm 2 mps 691 mmHg 82%
    23:00 -2°C° 0 mm 2 mps 691 mmHg 84%
    Show more